Theta_e
344 344 344 343 344 342 340 338 339 339 340 340 340 340 339 339 340 339 341 340 340 341 340 341 343 343 343 342 344 345 347 348 348 346 347 347 348 340 340 340 340 340 340 339 339 338 338 337 336 335 334 333 333 333 332 332 332 331 330 331 330 329 329 329 329 329 329 329 328 328 328 328 327 327 326 326 325 325 324 324 323 323 323 323 323
344 343 344 343 343 344 343 341 340 339 339 341 339 339 339 338 338 336 334 337 337 339 340 341 341 342 342 342 344 344 346 345 347 346 346 348 349 343 340 339 341 341 340 340 340 339 338 338 336 336 335 334 334 333 333 333 332 331 330 330 329 329 328 328 329 328 328 328 328 329 328 328 327 327 326 326 325 325 325 325 324 324 324 323 323
347 347 346 345 344 345 344 343 341 341 342 341 343 342 340 338 338 335 335 334 333 337 338 338 341 341 342 342 343 345 346 348 346 346 345 347 348 348 340 340 340 341 341 340 340 340 339 339 338 337 336 335 335 334 334 333 333 332 331 330 329 329 329 329 328 328 327 328 328 328 328 328 328 327 327 326 326 325 325 325 324 324 324 324 324
348 348 349 348 346 343 343 343 341 342 344 342 342 343 342 340 339 340 340 338 336 337 336 334 336 337 338 339 340 342 344 346 345 345 345 347 347 348 348 341 340 341 341 341 340 341 341 340 339 338 338 337 336 335 335 334 333 332 331 330 329 329 328 328 328 328 327 327 327 327 328 328 328 328 327 327 326 326 325 325 325 324 324 324 323
345 350 349 348 348 347 345 344 344 344 345 347 345 346 344 342 343 342 342 342 339 338 336 335 335 333 334 336 337 336 338 341 345 346 345 347 347 347 349 347 343 341 341 341 340 341 341 340 340 339 339 338 337 336 336 335 334 334 332 331 331 330 328 328 328 328 328 327 328 327 327 327 328 328 328 327 327 326 326 325 324 324 325 324 324
343 349 349 348 348 347 346 345 345 346 345 346 343 343 342 342 341 341 341 339 336 339 338 336 332 330 332 332 335 337 337 337 340 341 343 345 347 349 347 348 347 344 341 342 341 341 341 341 340 340 339 339 338 337 336 336 336 335 334 332 331 330 330 329 328 328 328 328 327 327 327 327 327 327 327 327 327 326 326 325 324 324 324 324 324
340 343 348 347 348 345 345 346 348 349 346 346 343 342 342 341 340 339 341 339 337 338 338 334 332 330 331 331 329 330 336 336 337 339 338 342 344 346 349 348 347 348 347 345 342 341 341 341 341 341 340 339 339 338 338 337 336 336 335 334 333 332 331 330 329 328 328 328 328 327 328 328 327 327 327 327 327 327 326 326 325 325 325 325 325
340 341 341 344 342 345 346 347 348 348 348 347 345 343 341 341 341 341 339 337 336 337 339 337 335 331 331 333 330 330 331 332 334 334 336 338 339 341 344 346 346 345 346 347 348 344 341 341 341 341 341 340 340 339 339 338 337 337 336 335 334 333 333 331 331 330 328 328 328 328 328 328 328 328 328 328 328 328 327 327 326 326 326 326 326
340 338 337 338 338 339 345 348 349 347 347 348 345 346 344 340 341 340 340 338 337 336 336 338 337 336 334 335 333 332 330 331 331 334 333 335 337 337 340 341 342 346 345 344 347 349 343 341 340 341 341 341 341 340 340 340 339 338 338 337 336 335 335 334 332 331 330 329 329 329 329 329 328 328 328 328 328 328 328 328 327 327 326 326 326
339 339 338 338 338 337 337 340 348 348 347 347 344 345 343 345 342 341 339 338 336 335 335 337 337 335 335 334 336 332 332 332 332 332 332 331 335 336 337 339 340 340 342 345 345 346 348 342 340 340 340 340 340 340 340 340 340 340 339 338 338 337 336 336 334 333 332 331 330 330 330 329 329 329 329 328 329 328 328 328 327 327 327 327 326
340 338 337 338 337 338 337 340 341 345 346 346 343 342 341 341 340 339 340 339 338 338 336 336 335 335 332 334 337 338 336 334 334 330 330 330 330 333 333 335 339 338 342 343 344 345 346 350 345 344 342 340 340 340 341 341 340 341 340 340 339 338 338 336 337 335 334 333 332 331 331 330 330 330 329 329 329 329 329 328 328 328 327 327 327
338 339 338 337 337 340 341 342 341 342 342 343 343 340 340 340 339 339 337 336 338 338 339 337 336 337 337 338 338 339 336 336 335 331 331 330 329 329 329 332 335 339 340 343 343 344 345 346 347 346 345 342 338 339 339 340 340 341 341 341 341 339 339 338 338 337 336 334 333 333 332 331 331 330 330 330 329 329 329 328 328 328 328 328 327
339 339 338 336 337 339 340 341 341 343 339 339 342 342 341 342 339 339 336 335 335 338 337 337 334 333 337 338 339 341 340 339 337 334 331 330 330 330 330 331 332 338 341 342 341 342 344 346 346 347 346 345 343 338 338 339 339 340 341 342 342 341 340 339 339 338 337 336 334 334 333 333 332 331 331 331 330 329 329 330 329 329 329 329 328
341 341 338 338 337 338 339 342 346 342 339 338 339 340 341 338 340 338 339 336 335 335 336 335 331 329 329 330 334 337 339 340 337 335 333 331 331 332 334 332 330 333 341 340 340 337 340 344 345 344 343 343 343 345 341 340 339 338 341 342 342 342 341 341 340 339 339 337 336 335 334 334 333 332 332 332 331 330 329 330 329 329 330 330 330
340 340 340 338 339 340 339 339 342 340 336 335 337 339 341 341 342 338 336 337 336 337 338 338 330 332 331 329 326 327 333 336 339 338 336 335 332 331 331 332 331 331 336 340 339 336 336 339 341 343 344 344 341 341 345 343 342 338 338 341 341 341 342 342 341 341 340 339 338 337 336 335 334 333 333 333 332 331 330 330 330 329 329 330 330
337 339 340 340 340 340 340 339 338 339 337 335 336 338 339 342 342 341 340 336 335 335 338 339 335 331 325 327 327 327 322 327 333 337 338 336 333 331 332 332 332 332 332 334 337 338 337 336 339 342 344 345 343 341 341 342 342 339 338 338 338 340 341 342 342 341 341 341 340 339 337 336 336 335 334 333 333 332 332 331 331 331 330 330 330
331 335 338 339 341 340 338 340 337 337 336 334 336 336 335 340 342 340 338 338 337 337 338 338 338 338 331 328 326 325 324 327 332 334 339 335 334 332 332 332 331 332 331 331 335 337 336 337 338 341 345 346 346 345 343 343 343 345 343 338 338 339 340 341 341 342 342 342 342 340 339 338 337 336 336 335 334 334 333 333 332 332 331 331 331
328 330 332 337 341 341 340 340 339 335 337 337 337 337 336 336 339 339 338 343 339 336 335 338 339 339 338 336 334 328 329 331 329 325 338 338 335 334 333 333 333 332 331 331 333 334 336 338 340 341 344 346 346 344 344 344 343 343 345 345 338 338 339 340 341 342 342 342 342 342 341 340 339 338 337 337 335 335 335 334 333 333 332 332 332
327 329 331 332 335 339 341 341 340 339 337 338 337 335 335 336 341 337 338 338 340 334 334 338 339 340 339 339 339 338 337 333 329 330 327 333 335 334 333 334 335 334 333 333 334 335 337 339 338 340 342 345 346 344 344 344 342 342 342 342 340 338 338 339 341 342 342 342 343 343 342 341 341 340 339 338 337 336 336 335 334 333 333 333 332
323 325 329 330 331 333 337 339 339 340 340 339 338 337 337 339 340 338 339 337 334 333 338 342 336 335 339 337 338 338 336 337 335 333 330 328 330 334 336 337 337 337 336 335 336 336 338 340 338 338 340 341 342 342 343 342 343 345 344 340 340 339 338 339 340 340 341 342 342 343 343 343 342 341 341 341 339 337 336 335 334 334 334 334 333
325 326 327 329 330 330 332 333 337 340 341 338 338 336 335 334 336 335 334 336 338 338 340 338 337 335 338 339 337 335 335 336 336 336 330 329 328 329 332 337 338 337 339 338 338 338 338 339 339 338 340 341 342 343 343 344 343 345 342 339 339 339 339 339 339 338 338 341 342 343 343 343 343 342 342 342 341 339 337 336 335 335 335 334 334
324 325 326 325 325 327 328 330 334 336 339 341 339 338 338 335 335 337 336 336 342 338 337 339 340 338 338 339 338 337 334 334 334 333 333 332 328 328 332 332 331 335 340 338 339 339 338 340 341 340 339 339 341 342 344 345 345 343 340 335 339 338 338 339 338 337 337 337 340 342 343 343 344 343 343 343 342 341 339 337 336 336 335 334 333
323 324 324 324 325 325 326 330 332 335 335 338 340 340 339 338 339 339 340 339 339 338 337 342 342 340 336 335 335 338 336 333 332 333 333 332 330 329 331 331 331 332 338 340 340 340 339 339 338 340 342 341 340 341 344 345 339 337 333 333 336 336 337 338 337 336 336 338 338 339 341 343 343 343 343 344 343 342 340 339 338 337 336 335 334
322 321 323 323 323 323 325 328 331 332 333 336 337 336 339 340 339 338 338 337 338 340 337 337 336 341 340 338 335 336 340 338 337 337 335 334 333 330 330 332 332 331 334 338 339 339 338 337 338 339 340 342 341 342 342 345 343 335 338 333 332 335 337 338 337 336 335 336 337 338 340 341 342 343 344 344 343 342 341 340 339 339 338 337 337
319 320 321 322 322 322 324 325 327 330 331 331 333 334 338 337 339 339 338 336 336 338 334 334 339 337 337 338 339 337 336 340 340 338 338 339 335 330 332 334 331 332 334 336 335 336 337 336 336 337 339 340 341 342 342 344 344 337 332 335 329 331 334 337 338 335 334 334 336 337 339 340 341 342 342 342 341 340 340 340 338 337 337 337 337
318 319 320 320 320 320 320 320 321 321 322 324 329 332 334 335 337 338 336 336 336 337 339 340 340 339 339 338 339 337 336 338 340 340 338 337 335 333 332 334 334 332 334 333 335 333 334 335 336 337 339 339 340 341 342 342 344 334 330 339 338 328 329 332 336 336 336 335 334 335 336 337 339 340 340 339 338 338 338 337 337 337 337 337 336
318 320 320 320 320 320 320 320 320 321 322 323 325 332 335 335 335 335 337 338 338 340 338 336 339 337 336 338 337 336 335 334 339 341 339 338 338 338 334 329 331 333 332 332 332 332 332 334 336 336 337 341 340 341 340 342 337 333 329 343 346 329 326 327 330 332 335 335 334 333 333 333 334 334 334 334 334 335 336 337 337 338 338 338 338
319 319 319 319 318 318 318 318 319 320 321 322 323 327 330 332 334 336 336 337 337 338 338 337 340 339 338 338 336 335 337 338 341 339 339 340 340 340 338 335 331 328 331 330 331 331 335 332 334 336 336 338 339 341 337 337 340 331 329 346 345 340 326 323 323 326 331 333 334 335 333 332 332 332 333 334 335 335 338 338 338 338 339 339 339
318 319 317 318 318 318 317 318 318 319 320 321 321 323 324 327 330 332 334 336 337 338 340 339 340 340 339 337 336 338 339 338 338 337 340 342 341 340 339 336 336 330 326 326 328 331 334 334 330 333 337 338 339 340 340 340 336 336 343 343 344 345 331 321 320 323 327 328 328 332 335 335 335 333 334 336 337 336 337 337 338 339 339 338 338
316 317 317 317 317 317 317 317 318 318 320 321 322 322 325 326 328 331 332 335 335 337 336 337 339 340 339 339 338 334 336 336 340 337 338 339 340 340 339 339 338 333 332 328 328 333 334 337 335 332 336 337 338 338 339 340 332 337 341 340 342 344 328 320 319 319 322 321 321 322 326 331 334 336 336 336 337 337 336 337 337 338 338 336 336
316 316 316 316 316 316 317 316 317 317 318 318 320 321 323 324 327 329 331 332 333 335 336 336 338 340 339 336 337 338 336 335 339 335 340 335 339 340 340 340 338 337 335 334 328 332 337 335 337 338 337 338 337 339 337 337 334 337 341 342 340 331 327 331 319 318 318 317 317 318 321 324 328 331 333 336 336 336 336 336 335 335 334 331 328
315 316 315 315 315 315 315 315 315 316 317 317 318 319 321 322 324 326 329 330 330 331 334 336 335 336 337 335 336 337 336 335 335 337 335 336 338 338 340 340 339 338 337 334 332 330 336 337 337 338 339 340 339 337 337 336 335 327 341 340 341 328 340 341 323 319 318 316 315 315 317 319 321 325 328 330 332 333 335 335 333 329 326 325 325
314 314 314 314 314 315 315 315 315 315 316 316 317 319 320 320 321 324 327 329 328 329 333 334 335 335 335 334 334 335 337 337 335 336 333 337 340 337 337 339 339 338 335 335 333 331 335 340 339 338 340 340 337 339 337 338 337 338 332 340 341 341 341 341 341 322 319 317 315 313 313 313 314 318 323 328 327 328 330 327 323 323 324 325 323
313 313 313 313 314 314 314 315 315 315 315 315 317 318 318 319 320 322 325 327 327 327 330 331 333 334 336 334 334 336 339 335 334 334 335 340 339 338 334 337 338 336 336 334 334 333 331 336 336 338 338 338 335 338 337 337 338 338 337 338 338 339 338 341 341 342 319 319 316 314 312 311 311 311 314 318 317 316 316 316 316 316 319 321 319
313 312 312 312 312 313 313 314 314 314 315 316 317 317 318 319 319 321 323 325 327 327 326 328 329 330 332 333 333 334 336 335 336 335 337 337 336 333 335 339 337 335 335 337 336 334 333 332 336 335 337 336 336 335 337 338 338 337 336 336 336 337 338 340 341 341 319 316 315 314 312 311 311 310 310 310 311 312 312 312 313 313 313 313 314
311 312 311 311 311 311 312 313 314 313 314 314 315 315 315 318 319 319 321 323 325 326 326 327 328 328 330 331 332 334 336 334 334 335 336 336 335 334 334 334 334 335 338 338 338 337 334 332 334 333 335 335 335 336 337 338 337 337 338 338 338 337 337 338 340 341 328 313 315 314 313 312 310 310 309 309 309 309 310 310 311 311 311 311 311
311 311 310 310 310 310 310 310 312 313 312 313 313 314 314 315 318 320 321 321 324 326 326 327 329 329 330 332 331 331 333 333 336 337 336 337 337 333 332 335 334 336 337 337 337 338 336 333 333 336 337 337 337 337 337 334 336 337 338 337 336 337 337 339 339 338 326 313 313 314 314 312 311 310 309 309 308 308 308 308 309 309 309 309 309
311 310 309 309 309 308 308 309 310 311 312 312 313 314 315 315 316 318 321 323 324 325 325 326 328 330 330 330 331 332 332 332 332 336 335 336 335 333 334 334 335 339 335 333 337 337 337 335 335 333 337 335 336 337 337 335 334 334 335 337 338 338 337 337 338 337 340 340 340 332 317 315 312 310 310 310 308 308 308 308 308 308 308 308 308
309 309 309 308 309 308 308 309 308 309 310 312 313 313 314 315 315 315 319 321 323 325 326 327 327 328 329 330 332 332 332 332 332 333 335 338 337 335 335 334 336 337 337 338 333 332 332 331 335 335 333 336 337 334 336 337 336 334 333 334 334 336 338 337 336 337 340 340 332 324 328 329 325 325 315 309 309 308 308 308 309 309 309 308 308
308 308 308 307 308 307 308 308 309 309 309 310 311 313 314 315 315 315 316 316 315 319 323 326 327 327 328 330 331 332 332 332 333 334 335 334 334 334 336 332 332 334 336 336 334 331 330 332 331 330 334 333 335 337 338 337 334 334 334 332 331 334 336 339 339 337 338 339 340 341 327 325 325 323 316 314 311 310 310 310 310 311 311 310 309
308 308 308 307 306 306 307 308 307 308 308 309 311 312 313 313 313 310 310 310 312 315 320 323 325 327 329 331 330 330 332 330 323 323 326 328 337 336 336 336 337 333 331 336 334 332 329 328 329 330 331 334 335 335 334 334 332 332 335 335 333 334 335 336 337 339 337 337 339 339 338 340 339 341 341 339 336 320 318 312 319 313 311 310 308
307 307 306 306 306 305 305 305 306 306 307 309 309 306 304 308 308 306 307 308 308 310 314 319 323 325 325 328 332 329 325 323 319 313 310 311 316 330 338 337 336 335 331 330 332 332 331 326 326 327 328 327 330 334 335 337 337 337 334 334 331 333 335 336 338 339 340 339 337 336 337 341 340 340 341 341 341 338 338 332 330 328 319 309 308
304 305 305 304 304 304 304 304 304 305 306 308 303 298 297 298 304 305 305 305 306 307 310 315 319 322 324 327 331 331 330 325 328 313 309 308 308 308 310 315 322 334 333 332 329 330 332 329 328 327 330 332 333 332 336 335 337 336 336 335 333 333 332 331 329 335 341 340 337 336 336 341 342 338 339 338 340 343 342 340 322 316 316 314 310
303 303 303 302 303 303 303 304 304 305 306 304 298 297 296 296 298 304 304 304 305 307 309 312 317 320 322 325 329 329 332 333 333 334 323 312 308 307 307 307 307 308 312 327 330 329 329 329 330 331 332 331 332 332 334 333 333 333 337 336 335 332 331 331 331 331 338 342 337 335 335 341 341 339 339 339 341 341 340 330 318 314 313 313 311
301 301 302 302 301 302 302 302 303 304 304 301 297 296 295 295 295 299 304 304 304 305 307 309 312 315 319 323 326 328 327 328 329 330 331 332 313 307 309 308 307 306 303 302 306 327 331 331 331 331 331 331 330 333 336 335 337 334 335 334 336 333 332 331 331 332 337 342 338 335 332 337 339 337 337 340 342 343 342 323 316 313 311 310 310
300 300 301 300 300 301 301 301 302 303 303 301 295 295 294 293 293 295 302 303 304 305 306 307 310 314 318 320 321 324 327 329 330 330 331 332 333 332 328 327 329 324 310 305 304 302 312 328 330 330 332 335 333 335 338 339 335 335 333 333 335 336 332 333 337 338 342 341 338 337 334 335 338 337 336 338 340 341 341 331 316 313 310 310 309
299 298 299 299 299 300 300 300 301 301 302 297 294 293 293 293 293 294 300 302 304 307 309 310 312 314 317 320 322 322 323 323 326 326 327 329 332 332 331 332 333 334 335 334 331 329 326 326 330 332 333 334 335 337 338 337 339 339 336 338 333 333 333 337 336 338 337 343 343 337 330 334 339 335 335 338 339 338 341 326 316 313 312 311 309
299 299 299 298 298 298 299 300 299 299 301 295 293 293 293 293 293 298 299 300 301 304 307 311 312 315 317 319 320 321 323 323 317 308 313 327 327 327 328 330 331 333 334 326 319 321 331 334 334 334 335 336 323 336 337 338 338 339 339 338 335 333 331 329 328 333 336 337 340 337 335 332 337 335 335 336 338 336 338 338 320 312 312 310 309
296 296 296 297 297 297 297 298 298 298 299 297 293 293 292 292 294 298 298 299 301 303 306 310 312 314 316 318 320 320 322 322 314 305 303 308 326 325 325 327 328 330 331 335 317 308 308 309 311 311 311 311 310 308 307 306 323 333 339 336 332 333 329 326 325 328 329 333 335 338 338 330 332 334 335 338 335 335 337 337 343 313 312 311 309
295 296 296 296 296 296 296 295 296 296 296 296 294 293 292 292 294 296 297 298 300 302 304 307 310 313 316 316 318 319 321 321 309 303 301 311 325 324 325 325 325 325 327 330 334 335 307 305 306 306 307 307 307 307 306 306 304 310 330 328 331 332 329 328 325 325 328 332 334 340 333 329 332 334 335 335 334 335 337 339 339 336 311 309 308
296 296 296 295 295 295 295 295 296 295 296 296 294 293 292 292 294 296 295 295 296 298 302 306 310 313 314 315 314 314 316 315 304 302 300 310 324 324 325 325 324 323 326 328 328 330 334 333 329 325 319 314 320 325 326 310 306 310 326 330 333 331 328 327 327 326 323 330 336 339 333 334 329 332 334 331 328 332 337 336 338 339 341 341 338
Wind_Speed
9 9 8 9 8 8 7 7 7 8 7 7 7 7 7 6 6 7 7 6 6 6 6 6 6 6 5 6 6 5 4 5 4 5 5 4 5 12 17 15 14 14 14 13 13 14 15 15 14 14 14 13 13 13 13 12 12 12 12 12 12 12 12 12 12 12 13 12 13 13 13 13 12 12 12 12 11 11 11 11 11 11 10 10 10
9 9 9 9 8 8 8 8 8 7 7 8 7 6 6 6 6 7 8 7 7 7 6 6 6 6 6 6 6 5 5 5 5 5 5 5 4 11 18 16 15 15 15 14 14 15 15 15 15 15 15 14 14 14 13 13 13 12 12 13 13 13 13 13 13 13 14 13 14 13 14 14 13 13 13 13 13 12 12 12 12 11 11 11 11
7 8 7 8 8 8 8 8 8 8 7 8 7 7 6 6 7 7 6 7 7 6 7 6 7 7 7 7 6 6 6 5 5 6 6 5 5 6 13 18 16 16 16 15 15 15 15 16 16 16 16 15 15 15 15 14 14 13 12 13 13 13 13 14 14 14 14 14 14 14 14 14 14 14 14 14 14 13 13 13 13 12 12 12 11
8 8 8 8 8 8 8 8 8 8 8 7 7 7 7 7 8 7 6 5 6 6 7 6 7 7 7 8 8 7 6 6 6 6 6 5 5 6 8 12 17 16 16 15 16 16 16 16 16 16 16 16 16 16 16 15 14 14 13 13 14 14 14 15 14 15 15 15 15 15 15 15 15 15 15 15 14 14 14 14 13 13 13 13 12
9 9 9 8 8 8 8 8 8 7 7 8 8 7 7 7 7 6 6 6 5 6 6 7 7 7 7 8 7 8 7 7 6 6 6 6 6 6 6 9 12 17 17 17 16 16 17 16 17 17 17 17 17 17 16 15 15 15 14 14 14 16 15 15 15 16 16 16 16 16 16 16 15 15 15 15 15 15 15 15 14 14 14 14 14
11 8 8 7 8 9 10 9 8 8 8 8 7 7 7 7 7 7 7 7 7 6 6 7 7 7 7 7 7 7 7 7 7 7 7 7 7 6 6 7 8 10 12 17 17 17 16 16 17 17 17 18 18 17 17 16 16 16 16 15 15 16 16 16 16 16 16 17 17 16 16 17 17 16 16 16 16 16 15 15 15 14 14 14 14
9 11 7 9 8 8 9 9 8 8 8 7 8 8 8 8 7 7 7 7 7 7 8 8 8 8 8 8 8 7 7 7 7 8 8 8 7 8 7 6 6 7 9 10 16 18 17 17 17 17 18 18 18 18 19 17 16 16 16 17 16 17 17 17 17 17 17 17 17 18 18 17 17 17 17 17 17 16 16 16 16 15 15 15 15
4 6 7 8 8 9 8 8 9 8 8 8 8 9 9 9 9 8 7 8 8 8 7 8 8 9 9 8 8 8 7 8 8 9 9 8 8 8 8 7 7 7 7 7 9 15 20 18 17 18 16 17 19 19 19 19 18 18 18 18 17 17 18 19 18 17 18 18 18 19 20 19 19 18 18 18 18 18 18 17 17 16 16 16 16
5 5 5 4 5 9 9 8 8 8 7 7 9 9 10 10 10 10 9 7 8 9 9 8 8 9 9 9 9 8 8 8 9 9 9 9 9 9 9 9 9 8 7 7 8 9 18 20 20 18 18 17 17 19 20 20 20 19 19 19 19 19 17 20 20 19 19 19 19 19 19 20 20 19 19 18 19 19 18 17 17 17 16 16 16
7 8 7 6 7 7 8 13 9 8 8 8 10 10 11 10 10 10 10 10 10 10 10 8 8 8 9 10 9 8 9 9 8 8 9 10 10 10 9 9 9 9 9 9 8 8 9 17 20 19 19 18 18 19 20 21 20 21 21 20 20 20 19 18 20 21 21 20 20 20 20 19 20 20 19 19 19 19 19 18 19 18 17 18 18
8 8 7 7 8 7 7 11 12 10 8 9 11 11 11 11 12 11 10 11 11 10 10 9 9 9 9 10 9 10 8 9 9 9 9 11 10 10 10 10 9 10 10 9 9 9 9 9 12 12 14 21 19 19 21 21 20 22 22 22 21 21 20 20 18 21 22 21 21 20 20 20 20 20 20 20 20 19 19 19 19 18 18 19 18
6 6 6 6 7 7 8 7 9 10 11 11 10 11 13 13 12 12 12 12 11 10 9 9 9 9 9 7 8 10 11 10 10 11 10 11 11 10 10 10 10 10 10 10 9 10 9 10 10 11 11 17 23 21 21 21 20 21 23 23 22 22 22 21 19 19 21 22 22 21 21 21 20 20 20 20 20 21 20 21 20 19 19 18 19
5 7 8 8 8 8 8 10 9 8 9 10 11 12 13 12 12 11 12 12 12 11 10 9 9 9 8 10 9 10 11 10 11 11 12 11 10 10 10 10 10 10 10 10 10 10 10 10 10 10 11 9 16 23 22 21 21 21 23 23 23 23 22 22 22 20 20 21 22 22 21 21 21 21 21 20 21 21 21 21 20 20 20 20 19
6 6 7 9 8 8 9 10 7 8 10 12 12 12 13 14 12 11 12 13 12 13 11 9 10 10 9 9 9 10 12 12 13 13 13 12 11 11 11 12 12 11 10 10 11 12 12 11 11 11 11 11 11 12 15 17 19 22 23 24 24 25 24 23 23 22 20 21 22 22 22 22 22 21 21 21 20 20 20 20 21 22 21 21 20
7 7 6 7 9 8 7 9 9 8 9 10 12 16 15 15 13 11 11 12 12 11 12 12 10 10 9 8 9 9 9 11 11 13 13 13 12 13 13 13 15 13 11 10 11 12 12 12 12 12 12 12 11 11 12 14 16 21 24 24 24 25 25 25 24 24 23 21 21 22 22 22 22 22 22 21 20 20 21 21 21 21 22 21 19
7 7 6 6 6 7 6 8 9 7 8 10 12 11 13 13 12 12 11 10 11 12 13 13 11 9 10 11 9 8 9 10 10 10 13 14 14 13 13 13 14 14 12 12 12 12 12 12 13 12 12 12 11 11 11 11 16 19 22 25 24 24 25 25 25 25 25 24 22 22 22 22 23 23 22 21 20 21 21 22 22 21 21 21 20
7 8 7 8 8 7 8 7 7 8 9 10 11 9 12 12 11 9 13 12 11 9 11 13 14 11 9 9 9 9 10 7 7 7 9 10 14 14 12 13 13 12 12 13 12 12 12 13 12 12 12 11 12 11 11 12 11 13 17 22 24 24 24 25 26 26 26 26 25 24 22 22 23 23 23 22 21 22 22 22 22 22 22 21 21
7 8 9 8 8 8 8 7 7 9 8 8 10 9 11 12 15 10 15 12 10 10 12 11 13 14 13 11 8 6 6 8 8 7 8 8 9 12 12 13 12 11 11 11 13 12 11 11 11 11 11 11 11 12 11 11 12 11 12 14 23 24 24 25 25 25 26 27 26 26 25 22 23 24 23 22 22 23 23 23 23 22 21 21 21
8 8 8 9 9 8 8 8 7 6 8 10 10 12 10 12 9 10 11 11 10 10 14 11 11 12 13 14 14 11 9 6 7 5 7 8 8 8 10 12 12 12 12 12 13 11 10 10 11 12 12 11 11 11 11 11 14 14 14 14 19 23 24 24 24 25 26 27 27 27 27 26 25 24 24 24 22 23 22 23 22 22 21 21 21
8 9 9 9 9 9 9 8 7 7 6 7 10 11 11 11 8 10 11 8 12 13 13 8 6 10 11 13 13 14 15 14 13 9 7 6 8 8 9 10 10 10 11 12 12 12 11 11 11 11 10 12 11 11 11 12 12 13 13 15 15 20 23 23 22 23 25 26 27 27 27 27 26 26 26 25 25 23 23 22 22 22 22 22 22
7 8 9 9 9 9 9 9 8 8 8 8 9 11 11 12 10 9 11 13 12 13 10 10 9 9 10 12 12 12 12 14 14 13 12 10 10 9 9 10 10 10 10 11 11 11 11 11 12 12 11 11 11 12 12 12 11 11 14 17 19 19 20 20 22 23 23 24 26 27 27 26 27 27 27 27 26 23 22 23 23 23 23 23 23
6 7 8 9 10 10 10 10 10 9 8 9 10 9 9 9 11 10 12 16 9 9 11 10 7 10 11 9 9 10 12 12 13 13 14 14 11 10 10 11 11 10 10 11 12 12 12 11 12 13 12 11 11 12 12 12 11 12 14 17 19 21 21 21 21 22 22 23 23 25 26 28 28 28 28 28 28 25 22 22 23 23 23 23 23
6 7 8 9 9 10 9 10 10 9 9 10 10 9 9 10 11 14 13 11 10 12 12 13 11 11 10 10 12 10 10 11 12 12 12 11 12 13 12 11 12 11 11 12 11 12 12 12 12 12 12 12 12 12 12 12 14 15 14 15 18 19 20 21 21 21 20 20 22 24 25 26 28 29 29 28 27 25 23 22 23 23 24 24 24
7 7 7 8 9 9 10 10 10 10 10 9 10 11 10 10 9 8 9 12 13 11 15 12 16 11 11 9 10 13 11 11 11 10 11 12 12 11 11 11 12 12 9 10 12 12 12 12 12 12 12 12 12 12 11 12 13 16 13 14 16 18 19 19 21 21 21 21 20 22 24 26 27 27 28 28 26 24 23 23 23 23 23 24 23
8 8 8 9 8 9 9 9 9 9 10 10 10 11 11 9 9 11 10 12 12 13 14 16 15 13 10 11 9 10 14 13 11 11 11 10 11 11 11 11 10 9 9 9 9 10 11 11 12 12 12 12 12 12 11 12 11 12 16 14 17 17 19 18 19 20 21 21 21 22 24 25 26 26 26 25 24 23 22 23 23 23 23 23 24
8 9 8 9 8 9 10 11 11 12 12 13 13 12 11 11 11 11 12 11 11 17 16 16 13 14 11 9 9 8 11 15 12 12 12 11 11 12 10 9 9 10 9 9 10 10 10 12 12 11 11 12 12 11 11 11 11 12 16 14 14 19 18 19 20 21 21 21 21 21 22 23 24 24 24 23 23 22 22 22 22 22 23 23 23
8 8 9 10 10 10 11 11 11 12 12 12 12 12 12 12 11 12 10 10 13 11 10 14 13 13 14 11 10 12 13 14 15 13 13 12 11 11 11 12 10 10 10 10 10 13 11 9 9 10 11 10 11 11 11 11 12 11 14 13 11 17 20 20 20 20 21 21 21 21 21 21 21 21 21 21 21 21 21 22 22 22 22 23 23
9 9 10 11 12 13 12 12 11 12 12 12 13 12 12 12 12 11 13 10 13 16 13 16 17 18 15 11 10 13 13 14 9 12 15 12 11 11 10 10 10 11 10 11 10 11 12 12 10 12 11 10 11 10 11 12 10 10 13 10 11 11 18 20 20 20 21 21 21 22 22 22 22 21 21 21 21 21 21 22 23 23 23 23 23
9 9 11 11 12 12 13 13 12 13 13 13 13 14 14 13 13 13 13 13 13 15 13 13 14 15 12 14 12 11 12 13 9 12 14 12 12 11 11 11 10 11 10 10 11 10 11 12 10 9 11 11 10 10 10 11 11 12 10 11 11 11 14 20 20 20 20 20 21 21 23 22 22 22 22 22 22 22 20 21 22 22 23 23 23
11 11 12 12 12 13 13 13 13 13 12 13 13 14 14 13 14 14 13 13 14 13 12 13 13 12 11 11 10 12 13 14 7 10 13 12 12 12 11 11 10 12 11 11 11 9 9 9 10 9 8 9 8 9 9 10 9 10 11 11 11 11 14 18 19 20 20 20 20 21 21 22 22 23 23 24 24 22 23 21 24 22 24 23 23
11 12 13 13 13 13 12 13 13 14 14 13 13 13 14 13 14 13 14 14 14 14 12 12 12 13 14 15 15 11 11 13 10 11 8 11 14 13 12 11 12 12 12 11 13 10 9 9 9 10 10 10 9 8 8 9 8 11 11 11 12 13 13 13 17 18 19 20 20 20 20 22 22 23 22 23 23 23 24 24 24 24 23 23 22
11 13 12 12 14 14 13 13 14 14 14 14 13 13 14 14 14 14 13 15 16 16 15 13 12 13 15 17 15 11 10 12 12 10 11 14 14 16 13 12 12 12 12 12 14 14 9 9 9 10 11 10 10 11 13 10 9 13 11 11 12 11 9 11 16 19 19 20 20 20 20 20 21 21 22 22 22 23 23 23 23 22 22 21 21
10 11 13 13 14 14 15 14 14 14 14 14 13 12 13 14 14 15 16 16 17 16 15 16 16 16 15 15 16 16 15 13 11 10 13 18 10 9 13 13 12 12 14 14 15 14 10 8 9 10 10 11 12 12 13 12 12 10 13 12 12 12 12 11 11 20 22 21 20 20 20 20 20 20 21 21 22 22 22 22 21 21 21 21 21
10 11 12 11 13 15 14 15 14 15 15 14 14 13 14 14 15 13 15 17 18 17 16 17 17 14 15 16 16 16 16 16 14 15 16 13 11 10 16 15 11 12 14 15 16 14 14 11 10 10 11 13 13 14 14 13 13 12 14 12 11 13 12 12 12 11 23 22 22 21 21 20 20 20 20 20 21 21 21 21 21 21 21 22 22
10 10 11 12 13 14 15 15 15 15 15 14 13 13 14 15 16 15 16 17 17 17 18 18 18 17 17 16 16 15 13 15 13 15 16 14 11 14 17 12 11 12 15 18 14 14 15 13 12 12 11 11 13 14 14 13 13 13 14 14 13 12 11 12 12 12 15 22 22 22 21 20 21 20 20 21 21 21 21 21 22 22 22 22 22
10 10 11 12 13 13 15 15 15 15 15 15 14 13 14 15 16 17 17 18 18 18 18 18 18 18 18 17 16 15 15 16 16 15 16 13 9 11 13 12 12 13 14 16 17 14 12 14 13 13 12 12 12 14 13 12 13 13 12 12 14 14 14 13 13 13 11 18 20 21 21 21 21 21 21 21 21 21 21 21 22 22 22 22 22
10 10 10 11 13 14 13 14 15 15 15 15 15 15 14 13 16 16 17 17 18 19 19 19 19 18 18 17 17 16 16 16 15 15 15 14 10 11 15 14 15 14 11 11 13 14 13 14 12 12 11 11 12 12 12 12 11 12 13 14 14 14 14 13 12 11 13 16 19 20 20 20 20 21 22 22 21 22 22 21 21 22 22 22 22
11 11 12 11 12 14 15 15 15 15 15 15 16 15 14 14 14 15 15 16 17 19 20 20 19 18 17 18 17 16 16 16 16 16 15 15 13 15 15 12 16 12 11 13 11 12 12 12 13 12 11 12 11 12 12 11 11 11 12 12 13 14 14 13 13 12 11 8 7 10 15 17 20 21 21 21 22 22 22 21 21 22 22 21 21
12 12 13 14 13 14 15 15 15 15 15 16 16 15 15 14 15 15 13 14 15 17 19 21 20 19 19 18 17 17 17 17 16 16 15 14 13 14 13 13 14 15 13 10 8 12 10 15 13 11 13 12 12 12 12 12 12 12 13 12 13 12 12 12 13 12 11 11 15 14 12 12 16 15 18 21 21 22 22 21 21 22 21 21 21
13 14 14 14 14 14 14 15 15 14 14 14 15 15 14 13 12 12 13 13 12 15 16 17 18 20 19 19 18 17 17 17 16 15 15 14 14 16 10 6 11 14 13 10 7 5 6 7 8 13 12 11 12 12 11 11 12 12 12 13 14 12 12 12 12 12 12 12 12 11 11 13 14 17 19 21 24 24 23 22 23 22 23 22 21
12 13 14 14 15 15 15 14 15 14 14 13 12 12 12 12 11 11 12 12 13 14 15 15 15 18 20 18 17 17 17 16 16 12 12 10 11 12 13 12 12 9 12 12 11 9 9 10 8 9 11 13 12 11 11 11 13 13 11 12 13 13 12 11 11 13 13 13 13 13 12 12 13 13 13 14 15 21 21 24 19 24 24 21 21
13 13 14 14 14 14 15 14 13 12 12 11 12 14 8 8 12 12 12 12 12 13 14 15 14 14 17 17 14 18 15 12 11 11 11 12 12 12 11 11 11 9 10 13 11 11 10 11 12 12 12 12 14 12 12 11 10 11 13 12 13 13 13 13 11 10 11 12 12 14 14 12 13 14 13 13 13 14 13 14 14 17 19 24 24
14 14 14 14 14 14 15 14 14 12 12 12 14 11 10 9 10 13 13 13 12 13 13 14 14 13 12 14 13 13 11 10 11 13 13 13 15 16 16 16 13 11 12 8 8 9 9 10 11 13 14 14 13 15 12 11 10 13 12 13 13 13 12 12 13 11 11 12 12 12 13 12 12 13 14 15 14 13 13 15 19 23 22 22 23
13 13 14 14 14 14 13 15 14 13 12 14 13 12 10 9 8 10 13 13 11 11 12 13 13 13 13 12 11 10 11 12 11 12 14 18 18 17 18 17 17 18 17 15 13 11 10 10 12 14 14 15 16 15 13 11 11 14 14 13 14 13 14 14 13 12 8 10 12 13 13 11 12 13 14 13 14 13 14 15 17 19 22 23 21
13 13 14 14 14 14 15 15 15 14 13 13 12 11 11 10 10 11 12 12 12 12 12 12 13 13 13 12 11 10 11 11 10 12 12 11 15 20 20 19 19 18 18 18 17 16 15 14 12 11 12 13 16 16 14 14 10 11 11 14 13 14 15 15 14 12 11 9 10 12 13 11 11 13 13 14 12 13 12 12 13 15 18 19 20
12 13 14 14 14 15 14 14 14 15 15 13 11 13 14 13 11 10 13 15 14 14 14 14 13 14 14 14 14 12 11 12 11 12 11 12 12 10 12 12 13 16 18 20 20 21 18 15 17 18 15 14 15 14 14 11 12 9 8 13 15 11 13 14 12 11 10 11 11 10 11 12 12 12 13 12 12 12 13 14 14 16 16 18 18
13 13 13 14 14 14 14 14 14 15 14 13 10 12 14 14 14 14 14 14 14 14 14 14 15 14 14 14 15 14 15 14 12 12 13 12 11 11 13 13 12 13 13 14 15 14 13 13 16 21 20 19 17 17 18 16 15 10 12 9 9 12 9 9 9 11 15 12 10 9 14 11 9 13 14 13 11 12 11 13 14 16 18 16 16
12 13 13 13 14 14 14 15 15 15 14 14 11 10 11 14 16 14 13 13 13 14 15 14 14 13 13 14 15 16 16 16 16 13 11 12 13 14 15 14 13 12 12 13 14 12 15 15 16 19 19 20 18 17 16 14 15 14 12 10 9 8 7 10 11 11 12 11 11 12 9 8 10 13 13 13 12 12 12 12 13 18 17 18 16
13 13 13 13 12 13 14 14 15 16 15 14 13 12 12 14 14 12 13 12 12 13 14 15 14 14 14 15 15 15 15 16 15 13 13 11 13 15 15 15 14 13 13 11 14 17 17 18 20 20 21 21 20 19 18 17 13 12 13 12 11 9 11 11 12 11 12 10 11 11 7 8 11 14 13 11 14 13 12 12 8 12 18 17 16
13 13 13 12 12 13 14 15 14 15 16 15 14 12 13 13 13 12 11 11 13 13 13 15 14 13 15 16 16 16 17 17 16 14 12 10 13 15 15 16 16 16 15 13 10 9 18 20 21 22 22 22 21 21 20 18 16 7 11 16 15 13 15 10 11 10 11 11 12 8 7 9 8 11 11 9 10 13 13 11 11 8 11 12 15
12 12 12 12 13 13 13 14 17 17 15 15 14 11 10 11 11 11 11 11 12 12 13 13 13 12 12 13 15 16 16 17 17 15 12 9 14 14 14 14 15 16 14 14 13 14 11 10 12 13 14 16 16 15 15 20 20 15 12 15 16 17 16 12 13 10 13 15 11 9 13 8 11 12 7 8 11 12 10 10 10 10 10 9 7
Wind_Direction
198 197 199 205 205 205 209 210 206 211 199 214 210 206 209 206 202 204 197 199 207 210 210 199 194 202 213 213 214 210 206 217 214 204 203 189 190 160 177 184 192 195 203 203 202 202 202 200 200 200 205 210 211 214 215 217 219 217 223 224 223 225 225 223 222 221 221 220 219 215 214 213 212 210 209 210 210 208 209 208 209 210 212 215 216
200 199 196 200 204 203 208 210 205 210 203 208 210 207 206 205 205 210 199 199 199 198 212 212 207 204 203 216 203 215 205 219 208 210 201 192 201 149 176 185 192 197 201 206 207 206 206 205 204 203 205 209 212 214 217 219 220 217 219 223 225 228 228 227 227 226 224 224 223 220 219 217 216 215 213 213 214 213 213 212 212 213 215 217 220
212 202 202 198 201 204 208 209 209 207 208 208 206 208 207 208 210 208 212 201 199 187 204 207 211 211 203 217 209 209 207 210 223 211 210 193 193 172 176 183 192 197 201 206 209 211 210 210 209 207 207 209 212 216 216 219 222 219 216 219 224 227 229 230 229 229 227 227 226 225 225 222 221 219 218 217 217 217 217 217 216 216 217 220 221
223 212 211 204 203 205 206 207 210 207 207 210 205 208 210 210 209 209 217 216 197 194 202 212 210 214 204 207 214 210 210 205 214 206 216 199 198 194 171 183 190 197 201 204 209 213 214 213 213 211 211 209 212 217 217 218 222 222 217 218 222 225 229 231 230 230 229 229 229 229 228 226 226 227 225 221 220 220 220 220 220 220 219 221 223
252 223 216 213 212 210 212 207 211 212 205 206 213 204 214 210 209 211 204 211 212 200 202 209 211 214 218 205 211 215 215 205 204 216 204 204 207 198 196 181 187 195 201 204 206 212 216 217 215 215 213 212 212 216 219 219 222 222 221 221 220 224 228 229 231 232 232 231 231 231 231 230 229 228 227 227 225 223 222 223 224 223 222 223 224
274 254 235 233 223 217 215 215 215 208 210 202 207 210 209 210 207 205 204 211 209 206 203 209 212 211 215 222 213 218 221 215 210 207 212 212 200 207 206 195 190 186 198 202 206 208 213 218 219 218 216 215 214 214 220 219 222 222 220 223 221 221 224 227 229 232 233 233 234 233 233 232 231 230 229 230 229 228 226 226 226 226 225 225 225
265 274 293 257 242 230 225 219 214 213 217 211 216 213 211 206 205 212 202 214 218 204 210 215 214 215 210 216 218 212 221 229 217 222 212 213 215 208 214 213 205 195 193 195 199 205 209 213 220 222 220 219 217 216 220 221 222 223 221 222 221 217 217 222 227 229 232 233 234 234 234 233 233 232 231 232 231 231 230 229 229 229 229 229 229
256 282 258 273 263 255 237 234 220 215 219 218 219 225 221 218 210 209 210 214 217 212 206 216 216 218 213 212 216 218 217 218 224 224 222 219 214 214 211 216 214 216 208 215 193 200 201 208 214 220 224 222 221 221 220 223 221 223 225 224 222 223 213 216 222 229 229 232 234 234 235 235 235 235 234 234 235 235 233 232 231 231 232 233 233
294 281 254 261 283 291 295 254 233 227 217 221 225 224 225 219 222 223 221 222 220 219 213 210 215 218 219 211 217 213 222 223 221 225 231 224 223 217 217 218 216 214 213 222 224 197 192 202 208 213 220 223 223 224 223 224 223 224 224 225 226 226 217 209 214 221 225 225 228 231 235 236 236 236 236 236 237 237 237 236 234 233 234 235 236
261 258 267 264 262 265 258 275 257 239 233 223 227 224 227 223 223 221 224 226 230 226 220 212 213 215 214 216 218 219 220 224 227 229 231 231 223 228 224 221 221 215 213 217 224 227 199 193 200 208 215 219 222 223 225 225 226 225 226 226 227 225 225 217 210 214 221 222 224 228 232 235 237 237 237 237 238 239 239 238 238 237 237 238 239
247 252 259 256 245 235 250 259 262 246 237 242 240 235 234 226 224 223 223 229 231 234 233 223 222 220 221 215 214 217 222 222 225 228 231 237 237 228 227 224 222 220 216 217 218 217 222 195 195 208 214 217 220 221 224 225 226 226 227 228 228 226 226 226 216 210 216 220 222 225 227 230 233 236 238 239 239 240 240 240 240 239 239 241 241
239 230 250 259 253 241 234 252 275 270 253 241 243 239 230 226 223 225 222 226 228 237 230 228 228 226 229 238 225 226 221 217 222 228 230 232 234 236 233 228 220 222 219 218 219 217 214 216 203 204 210 202 212 219 221 223 225 226 227 228 228 228 226 226 223 217 214 217 219 223 225 227 230 232 235 238 240 240 240 241 241 241 240 240 240
239 248 233 247 253 254 250 243 234 247 262 259 251 249 240 228 223 218 222 224 226 220 227 225 223 224 223 228 233 231 234 228 224 225 229 231 230 228 231 233 229 220 220 218 221 220 217 216 215 214 211 215 198 211 216 221 223 224 226 228 229 228 227 226 225 222 217 214 217 221 223 225 226 228 231 234 239 240 240 240 240 240 240 240 238
264 241 231 226 240 251 256 254 239 239 249 255 254 245 249 242 229 224 218 221 226 225 219 217 219 222 217 218 228 232 228 228 230 229 231 228 224 224 226 226 228 225 219 218 222 225 221 215 220 220 220 221 216 198 211 218 223 224 224 226 227 228 228 227 227 226 221 217 216 219 221 223 223 225 228 231 235 238 239 239 239 239 239 239 238
278 269 266 242 240 240 235 250 249 240 242 249 253 242 231 232 229 229 224 225 227 224 220 211 225 209 220 239 235 232 215 224 230 235 230 229 223 222 221 223 227 227 219 219 224 226 225 221 219 219 220 225 228 222 208 207 217 213 218 222 225 226 227 227 227 227 226 221 218 218 219 220 221 221 224 227 231 233 235 236 237 238 238 239 238
288 279 263 264 253 240 246 237 247 247 245 255 259 262 254 235 232 230 238 236 224 218 214 211 222 208 211 213 221 223 238 219 221 222 228 226 224 225 220 225 226 222 227 220 224 226 227 226 222 218 219 223 230 230 231 224 205 208 210 218 221 223 225 226 226 226 227 227 223 217 218 218 218 219 222 224 226 229 232 234 235 235 238 239 239
294 287 273 266 260 247 237 226 237 245 244 247 255 263 267 266 236 231 239 236 231 236 223 217 214 221 224 207 211 219 229 230 209 221 207 219 221 225 224 228 225 222 223 227 223 228 226 227 226 224 214 219 223 228 232 233 223 208 208 211 217 221 223 225 226 226 226 227 228 226 220 215 218 220 221 222 223 226 228 230 231 232 234 236 237
283 287 290 283 268 257 254 245 235 234 235 241 250 240 253 252 247 221 235 235 248 237 238 217 218 213 225 235 238 228 216 218 222 214 181 219 222 222 224 221 228 225 225 225 226 228 224 225 225 222 219 218 221 227 227 232 229 227 223 207 208 216 219 221 224 225 226 227 228 228 228 221 220 222 222 221 222 224 225 226 228 229 231 232 234
287 286 283 283 282 273 260 250 241 230 238 243 244 246 240 247 252 239 227 238 225 234 247 222 214 221 224 229 238 244 249 232 216 222 213 201 222 220 219 219 216 222 223 224 226 226 227 223 223 221 219 217 218 223 226 226 228 231 223 218 196 209 215 219 220 223 224 226 227 228 229 228 226 225 224 223 223 224 224 224 225 226 228 230 233
288 284 284 284 280 281 277 264 252 233 223 234 246 251 253 256 258 261 272 256 240 230 230 251 251 232 224 234 232 236 241 241 247 253 248 223 197 214 226 220 220 219 226 228 225 223 217 222 226 225 222 220 218 218 220 224 224 220 222 217 209 204 212 217 218 221 223 224 226 227 229 230 229 229 229 231 230 225 224 224 224 226 227 229 230
293 290 285 284 289 287 285 280 268 254 232 229 238 242 246 250 251 250 240 247 255 241 232 230 227 255 236 223 233 230 230 234 241 239 240 240 238 229 219 203 214 215 218 230 237 233 228 221 225 235 228 224 227 226 222 222 222 220 219 205 211 213 213 212 215 220 223 225 226 227 228 229 231 232 231 232 232 228 226 226 225 226 228 229 230
300 297 296 293 289 289 284 281 280 274 261 251 239 234 237 246 250 244 247 247 245 277 276 251 232 243 259 260 218 229 232 232 230 232 236 239 242 234 226 226 217 210 212 223 230 241 236 225 223 227 235 235 226 226 225 221 220 219 218 202 202 211 215 217 216 220 221 223 226 228 230 231 233 233 234 234 235 233 228 226 226 227 228 229 230
303 301 299 298 298 291 284 282 283 282 273 263 253 243 233 234 242 249 251 252 250 238 240 248 243 237 236 246 255 237 225 227 227 225 229 227 226 236 244 236 236 226 211 213 220 227 235 239 235 229 229 233 235 227 226 225 223 227 225 198 200 207 212 215 218 219 221 221 223 226 228 231 233 235 235 236 237 237 233 228 227 228 229 230 231
300 298 300 307 306 297 290 282 277 278 282 279 274 268 254 242 238 234 241 248 247 242 246 245 241 238 230 230 238 252 248 235 231 229 226 230 228 231 230 237 241 243 233 224 219 224 228 233 234 235 230 233 232 232 228 225 227 223 221 206 202 208 211 211 217 220 222 224 222 223 227 229 231 232 234 236 237 236 234 232 230 229 229 231 231
304 304 300 303 304 302 299 296 290 285 288 290 283 276 274 260 240 236 231 241 246 244 243 240 236 232 230 229 228 243 248 243 240 236 231 232 232 236 236 236 238 242 239 229 229 227 231 232 237 241 239 229 231 231 233 230 235 207 208 217 205 212 213 213 215 217 220 223 223 224 226 228 229 230 232 235 236 237 235 233 232 232 232 232 232
293 294 302 303 300 299 294 289 285 280 279 280 281 277 270 264 256 251 243 237 240 245 244 246 243 240 232 233 220 228 250 257 241 232 230 227 229 232 236 237 238 243 240 237 235 241 231 234 229 233 236 239 237 233 229 236 234 213 193 218 205 211 216 218 218 220 221 221 222 224 225 227 228 230 231 231 233 234 236 235 234 233 233 233 233
288 291 292 296 298 298 296 289 287 284 280 275 275 275 271 266 258 253 247 241 243 241 250 254 244 241 243 231 229 227 240 248 245 236 227 229 230 229 231 234 236 239 242 239 242 236 244 241 231 229 231 238 243 241 239 228 231 213 182 209 231 200 215 216 220 221 222 222 223 224 226 227 229 229 230 231 230 232 233 235 236 236 236 236 236
290 292 294 296 299 300 298 293 289 287 286 278 273 270 271 270 264 255 249 244 245 244 238 240 243 243 243 236 236 238 233 243 246 247 240 232 228 233 234 235 239 241 231 237 238 243 235 243 234 232 238 237 236 238 235 243 249 215 176 217 227 221 202 213 217 220 223 224 224 225 225 226 229 229 230 230 231 231 232 234 235 236 237 238 239
295 293 297 296 296 297 298 296 292 288 283 279 274 267 267 268 266 262 255 251 247 242 238 241 244 241 241 239 235 241 247 244 242 263 257 234 235 231 233 235 233 245 251 246 236 241 233 233 245 230 221 230 234 234 235 238 229 225 225 222 230 240 203 205 212 218 221 223 226 226 227 226 227 229 229 230 230 230 229 231 234 235 236 238 240
300 295 294 295 293 292 294 296 293 286 280 282 279 274 269 264 262 262 259 254 254 251 245 242 239 237 232 231 233 239 240 252 236 233 252 254 235 234 233 232 230 238 247 254 251 240 247 241 241 249 226 227 230 227 240 241 226 209 239 239 231 228 217 197 207 213 217 222 223 225 226 228 228 229 229 230 231 230 231 231 234 233 237 238 239
297 297 297 296 293 293 293 293 293 291 284 273 275 274 268 265 262 260 259 255 253 253 245 240 241 239 236 239 235 227 234 244 237 230 240 259 255 238 234 231 231 233 243 250 255 243 247 247 240 243 252 244 236 250 251 247 211 200 234 242 243 236 213 199 202 208 215 218 222 223 225 226 229 230 231 232 232 232 233 233 234 237 237 238 238
296 295 292 289 291 291 290 289 289 290 286 281 273 271 269 263 261 258 257 256 253 251 249 241 239 239 239 239 234 223 229 238 238 232 238 239 238 237 229 233 232 230 233 244 249 252 227 240 243 247 251 260 259 249 251 247 236 186 246 243 242 245 224 237 195 208 211 219 219 222 222 225 226 228 231 233 234 234 235 235 236 236 236 236 235
295 292 293 290 287 287 289 287 286 286 285 283 278 271 267 264 260 260 258 257 254 251 248 247 243 241 239 236 236 235 227 225 233 236 236 232 225 248 249 237 229 227 230 234 242 247 239 226 241 246 251 257 256 251 253 259 255 243 226 240 242 248 246 241 235 199 209 214 219 219 221 223 223 226 228 230 232 235 236 236 236 236 235 234 233
292 291 288 291 291 289 285 282 282 283 282 280 279 273 268 267 264 260 258 255 256 253 250 250 247 243 240 239 234 230 224 232 228 232 233 231 225 219 241 240 223 228 230 235 240 243 245 226 230 236 242 244 255 253 256 255 259 256 254 250 244 239 239 246 242 229 199 212 214 217 220 220 222 224 225 228 231 232 233 235 235 236 236 235 233
292 292 295 294 291 289 286 283 279 279 280 280 280 278 273 269 266 261 258 257 254 254 250 249 250 248 246 244 242 236 233 231 221 230 236 236 234 238 234 225 228 228 234 233 233 236 238 239 226 229 227 228 237 250 249 247 250 252 253 252 245 245 251 240 241 251 195 204 209 215 216 218 222 222 223 226 227 229 231 232 233 234 235 235 235
291 293 292 293 293 292 288 284 279 276 278 278 275 276 279 277 268 263 261 257 256 254 252 250 248 247 246 247 244 240 234 232 230 231 234 226 222 233 238 233 228 232 234 229 226 235 239 246 234 235 227 224 232 241 251 255 251 250 249 254 257 250 245 246 244 244 213 196 206 210 212 217 220 221 222 224 224 227 229 231 232 233 233 234 234
293 297 295 293 292 288 286 284 281 278 274 274 278 277 272 274 278 273 265 262 261 259 254 249 249 249 248 246 246 243 239 237 235 232 231 228 210 222 230 223 224 227 238 241 233 228 234 240 241 234 234 229 226 232 235 242 241 244 244 247 252 255 253 248 257 250 244 187 201 205 211 215 219 221 222 222 224 225 226 229 231 234 235 235 234
296 295 295 295 295 293 287 284 283 283 280 277 275 275 276 276 273 278 277 269 267 265 260 253 248 247 246 246 245 245 243 241 239 239 237 227 225 230 233 232 236 223 224 240 249 242 234 245 250 245 232 235 232 228 230 236 245 252 254 252 251 247 247 250 250 255 260 248 201 198 211 216 218 222 224 224 225 226 225 225 228 232 234 236 236
294 295 294 298 298 295 292 288 283 279 279 277 276 278 277 275 275 276 288 297 293 277 267 261 251 246 245 245 245 244 245 243 242 241 237 229 227 237 240 234 231 224 230 221 228 241 235 240 247 255 251 236 233 237 228 230 236 240 247 250 249 250 252 244 245 246 244 250 255 238 217 212 218 221 223 228 229 228 227 226 228 230 233 235 236
298 297 297 297 297 296 294 291 287 284 282 279 277 275 276 278 277 283 293 294 299 296 289 281 268 254 245 244 242 241 241 241 241 240 237 235 234 235 233 244 257 244 225 226 226 245 245 249 240 253 251 254 244 236 238 233 238 240 240 246 249 247 243 244 248 250 248 254 252 250 219 208 216 219 221 222 226 228 226 228 229 229 229 231 233
298 296 296 297 297 297 294 293 292 289 284 280 279 276 280 286 293 301 299 299 299 295 292 288 280 268 253 244 242 241 241 245 250 254 250 245 239 238 239 231 233 244 260 239 226 226 232 242 248 247 259 252 242 236 232 232 234 239 237 241 248 249 254 252 245 242 247 250 248 250 253 247 233 234 231 230 225 222 228 227 230 226 228 229 231
299 298 296 293 293 294 295 293 292 290 285 283 280 296 328 318 306 303 301 297 295 293 291 288 286 281 261 248 248 247 246 246 251 250 247 242 240 251 249 239 236 241 242 250 234 230 225 230 235 240 239 234 243 240 242 239 243 247 251 247 247 248 250 254 252 248 242 244 249 251 252 245 245 247 240 237 235 208 221 215 222 224 218 220 226
299 297 293 292 293 294 293 293 292 288 285 281 289 297 295 294 291 292 294 294 292 287 282 279 277 278 276 260 253 253 241 230 237 240 245 239 239 244 249 254 252 237 243 245 262 261 234 222 234 236 230 235 239 247 239 237 243 246 239 242 245 246 248 250 252 243 230 237 242 252 253 250 250 251 248 245 241 234 218 227 212 213 219 214 216
302 299 292 290 291 294 295 292 289 287 287 288 293 294 290 279 269 285 292 288 283 279 277 278 276 271 265 261 261 257 255 253 257 235 223 230 235 239 241 243 243 246 243 245 242 241 239 240 238 230 237 241 245 244 242 235 234 240 237 236 238 240 246 245 248 248 238 223 237 243 247 247 246 249 252 250 247 247 240 230 212 203 209 214 213
302 297 294 293 292 294 295 293 291 290 286 289 303 325 328 320 306 295 293 283 279 278 278 277 278 277 274 266 265 263 259 260 256 253 259 243 222 230 237 239 244 243 244 244 243 246 253 246 240 245 242 255 256 246 235 234 233 247 253 243 235 238 241 248 251 251 246 239 249 251 253 249 243 244 246 248 250 250 247 232 218 204 204 208 213
305 301 298 296 295 295 296 295 293 291 290 295 320 326 324 324 324 320 301 291 281 275 271 269 265 265 262 264 266 269 267 263 260 260 261 259 261 238 226 233 238 238 235 238 241 242 243 250 254 254 247 236 244 251 244 238 243 237 242 252 249 242 250 249 245 264 282 265 249 252 253 251 247 250 251 247 246 250 251 247 214 209 208 212 214
307 305 303 302 300 298 298 296 294 293 291 304 323 317 314 315 318 313 298 287 281 275 269 263 261 260 261 260 262 265 268 265 264 265 263 265 263 262 259 252 244 245 242 237 231 230 229 230 241 249 253 252 250 248 249 246 241 229 236 247 264 275 270 282 283 261 252 250 258 261 258 252 255 257 257 258 252 248 249 253 222 211 217 221 223
310 308 306 304 303 302 301 300 297 296 296 308 314 310 311 313 310 302 296 291 282 278 273 270 264 259 256 256 256 257 260 264 261 249 244 257 264 266 263 260 256 249 246 241 240 229 227 229 231 240 246 249 250 252 254 253 249 246 241 241 242 259 272 273 263 252 249 251 246 237 243 254 264 263 262 259 255 251 244 246 217 199 205 216 222
315 312 310 307 306 305 303 302 301 298 300 308 317 314 308 303 300 301 300 295 288 279 272 267 264 259 254 251 253 255 255 257 257 245 229 222 253 259 262 263 260 259 257 248 222 223 224 227 235 240 247 251 253 253 257 259 254 263 261 254 240 236 245 243 252 254 256 257 250 240 228 239 249 256 257 258 262 260 259 254 249 187 206 208 217
316 315 313 311 309 307 306 303 302 303 302 304 306 309 306 306 311 307 301 297 289 282 276 272 268 265 258 252 255 255 257 257 258 251 236 209 247 256 262 265 262 257 255 253 254 222 211 222 226 230 236 242 246 252 254 256 254 241 242 248 252 248 246 235 246 245 255 243 244 242 232 219 254 260 258 259 269 268 262 259 259 240 189 213 218
315 315 316 314 313 310 307 305 305 305 304 308 313 318 330 325 320 313 306 299 297 293 289 281 273 268 266 259 248 249 255 261 271 270 257 227 252 256 263 265 265 263 262 262 255 256 249 227 227 233 243 247 249 248 245 242 244 233 229 243 251 250 250 243 244 240 252 256 254 246 254 242 234 236 248 269 262 252 252 258 258 262 259 249 206